QPF
0.00 0.00 0.00 0.00 0.00 0.00 0.00 0.00 0.00 0.00 0.00 0.00 0.00 0.00 0.00 0.00 0.00 0.00 0.00 0.00 0.00 0.01 0.03 0.05 0.07 0.09 0.11 0.11 0.11 0.13 0.14 0.18 0.16 0.07 0.05 0.06 0.06 0.04 0.03 0.06 0.06 0.04 0.05
0.00 0.00 0.00 0.00 0.00 0.00 0.00 0.00 0.00 0.00 0.00 0.00 0.00 0.00 0.00 0.00 0.00 0.00 0.00 0.00 0.00 0.00 0.01 0.02 0.04 0.06 0.08 0.11 0.13 0.12 0.12 0.14 0.17 0.11 0.05 0.05 0.06 0.06 0.07 0.09 0.10 0.10 0.09
0.00 0.00 0.00 0.00 0.00 0.00 0.00 0.00 0.00 0.00 0.00 0.00 0.00 0.00 0.00 0.00 0.00 0.00 0.00 0.00 0.00 0.00 0.01 0.01 0.01 0.02 0.02 0.05 0.08 0.11 0.12 0.15 0.20 0.20 0.12 0.10 0.11 0.09 0.10 0.09 0.11 0.13 0.12
0.00 0.00 0.00 0.00 0.00 0.00 0.00 0.00 0.00 0.00 0.00 0.00 0.00 0.00 0.00 0.00 0.00 0.00 0.00 0.00 0.00 0.00 0.00 0.01 0.01 0.01 0.02 0.03 0.06 0.08 0.12 0.16 0.19 0.21 0.17 0.13 0.13 0.12 0.12 0.10 0.12 0.13 0.16
0.00 0.00 0.00 0.00 0.00 0.00 0.00 0.00 0.00 0.00 0.00 0.00 0.00 0.00 0.00 0.00 0.00 0.00 0.00 0.00 0.00 0.00 0.00 0.00 0.00 0.00 0.01 0.02 0.05 0.07 0.11 0.13 0.15 0.18 0.18 0.16 0.15 0.15 0.13 0.13 0.17 0.19 0.20
0.00 0.00 0.00 0.00 0.00 0.00 0.00 0.00 0.00 0.00 0.00 0.00 0.00 0.00 0.00 0.00 0.00 0.00 0.00 0.00 0.00 0.00 0.00 0.00 0.00 0.00 0.01 0.02 0.04 0.05 0.07 0.10 0.12 0.15 0.18 0.19 0.18 0.21 0.24 0.28 0.30 0.31 0.30
0.00 0.00 0.00 0.00 0.00 0.00 0.00 0.00 0.00 0.00 0.00 0.00 0.00 0.00 0.00 0.00 0.00 0.00 0.00 0.00 0.00 0.00 0.00 0.00 0.00 0.01 0.02 0.03 0.03 0.02 0.02 0.05 0.09 0.13 0.14 0.13 0.14 0.15 0.21 0.23 0.26 0.30 0.31
0.00 0.00 0.00 0.00 0.00 0.00 0.00 0.00 0.00 0.00 0.00 0.00 0.00 0.00 0.00 0.00 0.00 0.00 0.00 0.00 0.00 0.00 0.00 0.00 0.00 0.01 0.01 0.02 0.03 0.03 0.01 0.01 0.03 0.05 0.06 0.05 0.08 0.12 0.18 0.23 0.32 0.42 0.42
0.00 0.00 0.00 0.00 0.00 0.00 0.00 0.00 0.00 0.00 0.00 0.00 0.00 0.00 0.00 0.00 0.00 0.00 0.00 0.00 0.00 0.00 0.00 0.00 0.00 0.00 0.00 0.01 0.02 0.01 0.01 0.01 0.02 0.03 0.03 0.04 0.06 0.11 0.17 0.24 0.31 0.37 0.35
0.00 0.00 0.00 0.00 0.00 0.00 0.00 0.00 0.00 0.00 0.00 0.00 0.00 0.00 0.00 0.00 0.00 0.00 0.00 0.00 0.00 0.00 0.00 0.00 0.00 0.00 0.00 0.00 0.01 0.01 0.01 0.01 0.01 0.02 0.03 0.03 0.03 0.05 0.11 0.15 0.20 0.27 0.30
0.00 0.00 0.00 0.00 0.00 0.00 0.00 0.00 0.00 0.00 0.00 0.00 0.00 0.00 0.00 0.00 0.00 0.00 0.00 0.00 0.00 0.00 0.00 0.00 0.00 0.00 0.00 0.00 0.01 0.01 0.02 0.03 0.02 0.02 0.04 0.03 0.02 0.02 0.03 0.08 0.15 0.26 0.34
0.00 0.00 0.00 0.00 0.00 0.00 0.00 0.00 0.00 0.00 0.00 0.00 0.00 0.00 0.00 0.00 0.00 0.00 0.00 0.00 0.01 0.01 0.01 0.01 0.00 0.00 0.00 0.01 0.01 0.02 0.02 0.03 0.02 0.02 0.03 0.03 0.04 0.07 0.11 0.15 0.18 0.23 0.30
0.00 0.00 0.00 0.00 0.00 0.00 0.00 0.00 0.00 0.00 0.00 0.00 0.00 0.00 0.00 0.00 0.00 0.00 0.00 0.01 0.01 0.02 0.01 0.01 0.01 0.01 0.01 0.01 0.02 0.02 0.02 0.03 0.03 0.04 0.04 0.07 0.10 0.17 0.21 0.22 0.21 0.22 0.25
0.00 0.00 0.00 0.00 0.00 0.00 0.00 0.00 0.00 0.00 0.00 0.00 0.00 0.00 0.00 0.00 0.00 0.00 0.00 0.01 0.01 0.01 0.00 0.00 0.01 0.01 0.01 0.02 0.02 0.01 0.02 0.04 0.06 0.04 0.05 0.08 0.12 0.18 0.20 0.22 0.24 0.25 0.28
0.00 0.00 0.00 0.00 0.00 0.00 0.00 0.00 0.00 0.00 0.00 0.00 0.00 0.00 0.01 0.01 0.01 0.02 0.02 0.02 0.02 0.01 0.01 0.01 0.01 0.01 0.01 0.01 0.01 0.01 0.01 0.03 0.05 0.05 0.06 0.08 0.13 0.21 0.29 0.33 0.32 0.32 0.30
0.00 0.00 0.00 0.00 0.00 0.00 0.00 0.00 0.00 0.00 0.00 0.00 0.00 0.01 0.01 0.01 0.01 0.02 0.02 0.03 0.02 0.01 0.02 0.01 0.01 0.01 0.02 0.02 0.02 0.02 0.02 0.03 0.05 0.07 0.07 0.09 0.14 0.21 0.31 0.37 0.39 0.34 0.26
0.00 0.00 0.00 0.00 0.00 0.00 0.00 0.00 0.00 0.00 0.00 0.00 0.00 0.00 0.01 0.01 0.01 0.02 0.03 0.02 0.01 0.01 0.01 0.01 0.01 0.01 0.02 0.02 0.03 0.04 0.05 0.05 0.08 0.11 0.13 0.15 0.18 0.23 0.30 0.34 0.33 0.25 0.15
0.00 0.00 0.00 0.00 0.00 0.00 0.00 0.00 0.00 0.00 0.00 0.00 0.00 0.00 0.01 0.01 0.01 0.02 0.02 0.01 0.00 0.01 0.01 0.01 0.01 0.01 0.02 0.02 0.04 0.07 0.09 0.10 0.12 0.15 0.18 0.19 0.19 0.22 0.29 0.28 0.21 0.12 0.05
0.00 0.00 0.00 0.00 0.00 0.00 0.00 0.00 0.00 0.00 0.00 0.00 0.00 0.00 0.00 0.00 0.01 0.01 0.01 0.00 0.01 0.01 0.01 0.01 0.01 0.01 0.02 0.02 0.04 0.08 0.12 0.15 0.17 0.19 0.21 0.22 0.21 0.24 0.26 0.21 0.11 0.03 0.01
0.00 0.00 0.00 0.00 0.00 0.00 0.00 0.00 0.00 0.00 0.01 0.01 0.01 0.00 0.00 0.01 0.01 0.00 0.00 0.00 0.01 0.01 0.01 0.01 0.01 0.01 0.02 0.02 0.04 0.08 0.12 0.16 0.18 0.20 0.22 0.20 0.19 0.20 0.17 0.10 0.03 0.00 0.00
0.00 0.00 0.00 0.00 0.00 0.00 0.00 0.00 0.00 0.01 0.01 0.01 0.01 0.01 0.02 0.02 0.01 0.00 0.00 0.00 0.01 0.01 0.01 0.01 0.01 0.01 0.01 0.03 0.05 0.09 0.14 0.17 0.17 0.19 0.20 0.18 0.16 0.13 0.06 0.01 0.00 0.00 0.00
0.00 0.00 0.00 0.00 0.00 0.00 0.00 0.01 0.01 0.01 0.01 0.01 0.01 0.01 0.01 0.01 0.01 0.01 0.01 0.00 0.00 0.01 0.01 0.01 0.01 0.00 0.01 0.05 0.09 0.13 0.17 0.19 0.18 0.19 0.17 0.15 0.12 0.06 0.01 0.00 0.00 0.00 0.00
0.00 0.00 0.00 0.00 0.00 0.01 0.01 0.01 0.01 0.01 0.01 0.01 0.01 0.01 0.01 0.01 0.01 0.01 0.01 0.00 0.00 0.00 0.00 0.01 0.00 0.00 0.01 0.04 0.10 0.17 0.20 0.18 0.18 0.17 0.13 0.10 0.05 0.01 0.00 0.00 0.00 0.00 0.00
0.00 0.00 0.01 0.01 0.01 0.01 0.01 0.01 0.01 0.01 0.01 0.01 0.01 0.01 0.01 0.01 0.01 0.01 0.00 0.00 0.00 0.00 0.00 0.00 0.00 0.00 0.01 0.05 0.11 0.17 0.19 0.19 0.17 0.13 0.08 0.04 0.01 0.00 0.00 0.00 0.00 0.00 0.00
0.00 0.01 0.01 0.01 0.01 0.01 0.01 0.01 0.01 0.01 0.01 0.00 0.01 0.01 0.01 0.01 0.00 0.00 0.00 0.00 0.00 0.00 0.00 0.00 0.00 0.00 0.02 0.07 0.13 0.18 0.20 0.20 0.16 0.08 0.03 0.01 0.00 0.00 0.00 0.00 0.00 0.00 0.00
0.00 0.00 0.00 0.00 0.00 0.00 0.00 0.00 0.00 0.00 0.00 0.00 0.00 0.00 0.01 0.01 0.00 0.00 0.00 0.00 0.00 0.00 0.00 0.00 0.00 0.01 0.04 0.09 0.15 0.19 0.21 0.20 0.10 0.03 0.00 0.00 0.00 0.00 0.00 0.00 0.00 0.00 0.00
MSLP
1013.68 1013.57 1013.42 1013.22 1012.97 1012.66 1012.30 1011.90 1011.48 1011.03 1010.56 1010.07 1009.54 1008.97 1008.34 1007.66 1006.94 1006.20 1005.45 1004.73 1004.05 1003.42 1002.83 1002.27 1001.71 1001.12 1000.47 999.75 998.96 998.11 997.23 996.37 995.56 994.84 994.24 993.76 993.41 993.16 992.98 992.85 992.75 992.66 992.57
1014.01 1013.85 1013.67 1013.45 1013.18 1012.87 1012.51 1012.11 1011.68 1011.23 1010.74 1010.22 1009.66 1009.04 1008.37 1007.65 1006.89 1006.11 1005.35 1004.61 1003.92 1003.29 1002.69 1002.13 1001.56 1000.95 1000.30 999.57 998.77 997.90 997.01 996.12 995.27 994.49 993.81 993.25 992.79 992.42 992.13 991.89 991.69 991.52 991.38
1014.33 1014.14 1013.93 1013.69 1013.41 1013.09 1012.72 1012.31 1011.87 1011.39 1010.87 1010.31 1009.69 1009.03 1008.31 1007.55 1006.76 1005.97 1005.19 1004.46 1003.77 1003.14 1002.56 1002.00 1001.43 1000.84 1000.19 999.47 998.68 997.83 996.93 996.03 995.15 994.31 993.56 992.89 992.31 991.82 991.40 991.04 990.74 990.48 990.29
1014.66 1014.46 1014.24 1013.98 1013.68 1013.34 1012.96 1012.53 1012.06 1011.54 1010.98 1010.36 1009.69 1008.97 1008.21 1007.42 1006.61 1005.80 1005.02 1004.29 1003.61 1002.99 1002.42 1001.87 1001.32 1000.74 1000.11 999.41 998.63 997.80 996.91 995.99 995.08 994.20 993.36 992.59 991.89 991.27 990.72 990.24 989.84 989.52 989.29
1015.02 1014.82 1014.58 1014.32 1014.01 1013.65 1013.24 1012.78 1012.27 1011.71 1011.09 1010.42 1009.70 1008.94 1008.13 1007.31 1006.48 1005.66 1004.88 1004.15 1003.47 1002.85 1002.28 1001.73 1001.18 1000.61 999.99 999.30 998.55 997.72 996.83 995.91 994.97 994.03 993.12 992.25 991.44 990.70 990.04 989.46 988.98 988.60 988.35
1015.39 1015.19 1014.96 1014.68 1014.35 1013.97 1013.54 1013.05 1012.50 1011.89 1011.23 1010.52 1009.76 1008.95 1008.12 1007.27 1006.42 1005.59 1004.80 1004.05 1003.37 1002.73 1002.14 1001.57 1001.01 1000.42 999.79 999.11 998.35 997.53 996.64 995.70 994.73 993.74 992.76 991.81 990.91 990.07 989.31 988.66 988.13 987.73 987.48
1015.75 1015.55 1015.31 1015.02 1014.68 1014.28 1013.81 1013.30 1012.72 1012.08 1011.39 1010.65 1009.86 1009.03 1008.17 1007.31 1006.44 1005.60 1004.79 1004.02 1003.30 1002.63 1002.00 1001.39 1000.78 1000.16 999.50 998.78 998.01 997.17 996.27 995.31 994.31 993.29 992.26 991.25 990.27 989.37 988.56 987.87 987.31 986.92 986.70
1016.06 1015.85 1015.59 1015.28 1014.92 1014.50 1014.02 1013.48 1012.89 1012.24 1011.53 1010.78 1009.98 1009.15 1008.28 1007.41 1006.53 1005.67 1004.83 1004.02 1003.26 1002.53 1001.83 1001.15 1000.48 999.79 999.08 998.32 997.52 996.65 995.73 994.76 993.74 992.69 991.63 990.58 989.58 988.64 987.81 987.11 986.57 986.21 986.04
1016.26 1016.03 1015.75 1015.42 1015.04 1014.60 1014.11 1013.56 1012.97 1012.32 1011.62 1010.88 1010.09 1009.26 1008.40 1007.52 1006.63 1005.74 1004.87 1004.02 1003.19 1002.39 1001.62 1000.86 1000.10 999.34 998.56 997.75 996.91 996.01 995.07 994.08 993.05 991.99 990.93 989.88 988.88 987.95 987.14 986.47 985.96 985.65 985.54
1016.34 1016.08 1015.77 1015.41 1015.00 1014.55 1014.06 1013.52 1012.93 1012.30 1011.62 1010.89 1010.12 1009.31 1008.45 1007.57 1006.68 1005.77 1004.86 1003.96 1003.08 1002.21 1001.35 1000.51 999.68 998.84 997.99 997.12 996.23 995.31 994.34 993.35 992.33 991.28 990.24 989.22 988.26 987.37 986.61 985.99 985.54 985.28 985.24
1016.30 1016.00 1015.65 1015.26 1014.84 1014.38 1013.88 1013.35 1012.78 1012.17 1011.51 1010.81 1010.05 1009.25 1008.40 1007.52 1006.62 1005.69 1004.75 1003.82 1002.88 1001.96 1001.04 1000.13 999.23 998.33 997.42 996.50 995.57 994.62 993.65 992.66 991.65 990.64 989.64 988.67 987.77 986.95 986.25 985.70 985.33 985.13 985.14
1016.15 1015.80 1015.42 1015.01 1014.57 1014.10 1013.61 1013.09 1012.54 1011.94 1011.30 1010.61 1009.86 1009.06 1008.22 1007.34 1006.42 1005.49 1004.53 1003.58 1002.62 1001.66 1000.71 999.76 998.81 997.86 996.91 995.96 994.99 994.02 993.05 992.06 991.08 990.11 989.16 988.27 987.44 986.71 986.10 985.63 985.33 985.20 985.26
1015.93 1015.54 1015.13 1014.70 1014.25 1013.78 1013.30 1012.78 1012.23 1011.64 1011.00 1010.30 1009.55 1008.75 1007.90 1007.01 1006.10 1005.16 1004.22 1003.26 1002.31 1001.35 1000.39 999.43 998.47 997.50 996.53 995.54 994.56 993.57 992.58 991.61 990.65 989.72 988.83 988.01 987.27 986.63 986.12 985.74 985.52 985.46 985.57
1015.67 1015.25 1014.82 1014.38 1013.93 1013.46 1012.97 1012.46 1011.90 1011.30 1010.64 1009.92 1009.16 1008.34 1007.48 1006.59 1005.68 1004.76 1003.84 1002.92 1002.00 1001.07 1000.14 999.20 998.25 997.28 996.29 995.30 994.29 993.28 992.28 991.30 990.36 989.46 988.63 987.88 987.23 986.69 986.27 985.99 985.86 985.87 986.03
1015.39 1014.96 1014.52 1014.08 1013.62 1013.16 1012.66 1012.14 1011.56 1010.93 1010.25 1009.50 1008.70 1007.86 1006.99 1006.11 1005.22 1004.34 1003.46 1002.60 1001.74 1000.87 1000.00 999.10 998.17 997.21 996.22 995.21 994.18 993.14 992.12 991.12 990.18 989.31 988.52 987.84 987.27 986.82 986.51 986.34 986.29 986.38 986.60
1015.09 1014.66 1014.22 1013.79 1013.34 1012.87 1012.37 1011.82 1011.22 1010.56 1009.84 1009.06 1008.23 1007.37 1006.50 1005.63 1004.77 1003.94 1003.13 1002.35 1001.56 1000.78 999.97 999.12 998.23 997.28 996.29 995.25 994.18 993.11 992.05 991.03 990.08 989.22 988.47 987.84 987.35 987.00 986.79 986.72 986.78 986.96 987.23
1014.76 1014.33 1013.90 1013.48 1013.03 1012.57 1012.06 1011.49 1010.86 1010.17 1009.41 1008.60 1007.75 1006.88 1006.02 1005.18 1004.38 1003.62 1002.89 1002.18 1001.49 1000.78 1000.03 999.23 998.37 997.43 996.42 995.35 994.24 993.12 992.02 990.97 990.01 989.15 988.43 987.87 987.45 987.20 987.10 987.13 987.29 987.55 987.90
1014.36 1013.94 1013.53 1013.11 1012.68 1012.21 1011.69 1011.11 1010.46 1009.74 1008.96 1008.13 1007.28 1006.42 1005.59 1004.80 1004.06 1003.37 1002.72 1002.10 1001.48 1000.84 1000.14 999.38 998.52 997.57 996.54 995.43 994.28 993.11 991.98 990.90 989.93 989.10 988.42 987.91 987.58 987.42 987.42 987.56 987.81 988.16 988.56
1013.87 1013.47 1013.07 1012.66 1012.24 1011.78 1011.25 1010.66 1010.00 1009.27 1008.48 1007.66 1006.82 1006.00 1005.21 1004.48 1003.80 1003.19 1002.61 1002.06 1001.50 1000.91 1000.24 999.48 998.62 997.65 996.58 995.43 994.24 993.04 991.89 990.81 989.86 989.05 988.43 988.00 987.75 987.68 987.78 988.01 988.34 988.76 989.21
1013.30 1012.91 1012.52 1012.13 1011.72 1011.26 1010.73 1010.14 1009.48 1008.75 1007.98 1007.17 1006.38 1005.60 1004.87 1004.21 1003.60 1003.05 1002.54 1002.03 1001.51 1000.92 1000.25 999.48 998.59 997.58 996.48 995.30 994.09 992.88 991.74 990.69 989.78 989.05 988.50 988.15 988.00 988.03 988.20 988.51 988.90 989.35 989.82
1012.67 1012.29 1011.91 1011.53 1011.13 1010.67 1010.15 1009.57 1008.91 1008.21 1007.46 1006.70 1005.95 1005.24 1004.58 1003.98 1003.43 1002.93 1002.45 1001.97 1001.44 1000.84 1000.14 999.33 998.40 997.35 996.22 995.03 993.82 992.65 991.55 990.57 989.75 989.11 988.67 988.42 988.37 988.47 988.72 989.07 989.49 989.95 990.39
1012.02 1011.65 1011.28 1010.91 1010.51 1010.06 1009.55 1008.97 1008.34 1007.66 1006.95 1006.24 1005.56 1004.91 1004.31 1003.77 1003.27 1002.80 1002.34 1001.84 1001.28 1000.64 999.89 999.02 998.05 996.97 995.82 994.65 993.48 992.37 991.37 990.50 989.80 989.28 988.96 988.83 988.87 989.05 989.34 989.71 990.12 990.53 990.92
1011.39 1011.03 1010.68 1010.32 1009.92 1009.47 1008.96 1008.40 1007.79 1007.14 1006.48 1005.83 1005.20 1004.62 1004.07 1003.58 1003.11 1002.65 1002.17 1001.64 1001.03 1000.33 999.52 998.60 997.58 996.48 995.35 994.21 993.12 992.11 991.23 990.51 989.96 989.59 989.40 989.39 989.51 989.74 990.05 990.40 990.76 991.10 991.39
1010.83 1010.48 1010.14 1009.77 1009.37 1008.92 1008.42 1007.86 1007.27 1006.66 1006.04 1005.44 1004.88 1004.34 1003.85 1003.39 1002.93 1002.46 1001.95 1001.38 1000.71 999.94 999.07 998.10 997.05 995.96 994.86 993.79 992.81 991.93 991.20 990.64 990.25 990.04 989.98 990.07 990.26 990.52 990.82 991.13 991.42 991.65 991.82
1010.33 1009.99 1009.65 1009.28 1008.87 1008.41 1007.91 1007.36 1006.79 1006.21 1005.64 1005.08 1004.57 1004.08 1003.62 1003.18 1002.73 1002.24 1001.70 1001.08 1000.35 999.53 998.61 997.61 996.55 995.48 994.44 993.47 992.60 991.87 991.30 990.91 990.68 990.60 990.67 990.83 991.07 991.34 991.61 991.86 992.05 992.17 992.21
1009.87 1009.54 1009.19 1008.81 1008.39 1007.92 1007.41 1006.87 1006.32 1005.77 1005.23 1004.72 1004.25 1003.80 1003.38 1002.95 1002.50 1001.99 1001.42 1000.75 999.99 999.12 998.17 997.17 996.13 995.11 994.15 993.28 992.54 991.96 991.54 991.30 991.21 991.25 991.41 991.63 991.89 992.14 992.37 992.53 992.63 992.64 992.57
Thickness
5608 5603 5599 5594 5589 5584 5579 5575 5571 5568 5564 5560 5557 5554 5550 5547 5543 5540 5539 5539 5537 5537 5537 5537 5540 5541 5542 5543 5542 5542 5542 5541 5545 5564 5571 5574 5573 5573 5574 5573 5573 5572 5572
5592 5587 5582 5577 5572 5567 5562 5558 5553 5549 5545 5540 5536 5533 5529 5525 5521 5516 5516 5515 5513 5513 5515 5516 5519 5520 5521 5521 5521 5522 5524 5526 5526 5538 5555 5559 5560 5562 5562 5563 5565 5564 5564
5575 5569 5563 5557 5552 5546 5542 5537 5532 5528 5523 5518 5513 5508 5505 5501 5498 5493 5491 5490 5490 5491 5493 5494 5495 5495 5497 5498 5500 5503 5506 5511 5513 5518 5534 5543 5545 5547 5547 5550 5550 5551 5552
5555 5549 5543 5537 5531 5525 5519 5513 5507 5501 5496 5491 5486 5481 5478 5476 5473 5471 5468 5468 5471 5472 5472 5471 5471 5471 5472 5474 5478 5483 5487 5493 5500 5505 5514 5524 5531 5534 5529 5533 5535 5536 5538
5535 5529 5522 5516 5510 5502 5495 5488 5481 5474 5468 5463 5459 5457 5454 5451 5451 5448 5447 5451 5452 5454 5453 5452 5452 5451 5451 5450 5453 5459 5464 5469 5477 5486 5495 5505 5514 5516 5516 5518 5522 5530 5529
5515 5507 5501 5494 5486 5477 5469 5462 5455 5448 5443 5438 5435 5434 5433 5432 5430 5428 5427 5432 5434 5432 5433 5435 5436 5436 5435 5432 5432 5435 5438 5443 5452 5459 5471 5482 5493 5498 5502 5504 5509 5515 5522
5495 5486 5479 5471 5461 5451 5443 5435 5428 5424 5420 5417 5415 5413 5413 5413 5411 5411 5410 5410 5408 5407 5407 5409 5413 5415 5411 5411 5417 5423 5425 5427 5428 5433 5445 5459 5468 5476 5480 5486 5493 5500 5510
5473 5463 5455 5447 5437 5428 5420 5412 5407 5403 5400 5398 5397 5395 5394 5394 5393 5393 5391 5389 5386 5384 5383 5384 5386 5388 5387 5386 5393 5403 5411 5418 5419 5422 5428 5440 5448 5454 5457 5464 5473 5484 5486
5451 5440 5431 5422 5414 5407 5400 5394 5389 5386 5384 5381 5380 5378 5376 5376 5374 5371 5367 5365 5364 5362 5362 5361 5361 5364 5366 5364 5367 5377 5391 5404 5412 5417 5423 5431 5438 5444 5447 5453 5463 5468 5473
5429 5418 5408 5400 5393 5387 5382 5377 5373 5369 5367 5364 5363 5359 5356 5354 5352 5346 5340 5338 5338 5338 5339 5340 5340 5342 5345 5345 5347 5356 5369 5384 5397 5408 5416 5424 5431 5437 5441 5443 5453 5464 5465
5408 5399 5390 5382 5375 5371 5366 5360 5355 5352 5350 5347 5346 5343 5337 5332 5327 5321 5317 5314 5313 5315 5318 5320 5322 5323 5326 5331 5336 5344 5353 5365 5377 5389 5403 5416 5423 5426 5429 5432 5439 5450 5457
5389 5382 5375 5367 5360 5356 5349 5344 5338 5332 5329 5326 5322 5320 5316 5309 5302 5297 5295 5293 5292 5293 5297 5300 5302 5308 5315 5322 5329 5337 5344 5353 5362 5375 5389 5402 5410 5414 5417 5421 5427 5435 5443
5372 5366 5360 5354 5346 5339 5332 5327 5322 5314 5306 5301 5295 5291 5289 5285 5279 5275 5274 5274 5275 5277 5280 5284 5289 5297 5305 5312 5319 5328 5337 5343 5354 5367 5379 5389 5395 5400 5405 5410 5415 5421 5423
5357 5351 5346 5340 5334 5326 5317 5309 5300 5292 5283 5275 5270 5265 5263 5261 5258 5256 5257 5260 5264 5267 5271 5276 5281 5286 5292 5300 5311 5321 5330 5338 5348 5359 5369 5376 5383 5389 5395 5401 5405 5409 5408
5343 5338 5333 5325 5317 5311 5303 5292 5282 5274 5260 5252 5248 5244 5241 5243 5243 5243 5243 5249 5253 5258 5264 5269 5272 5275 5283 5293 5304 5316 5327 5337 5345 5354 5361 5368 5375 5380 5385 5391 5395 5397 5396
5332 5327 5319 5310 5301 5291 5283 5279 5273 5259 5252 5243 5236 5232 5232 5232 5234 5236 5238 5242 5246 5249 5254 5257 5260 5264 5273 5285 5298 5312 5324 5334 5341 5347 5355 5362 5370 5374 5379 5384 5388 5389 5388
5318 5311 5303 5294 5282 5272 5263 5256 5258 5260 5250 5240 5233 5230 5228 5229 5230 5232 5235 5238 5239 5242 5243 5247 5251 5257 5267 5280 5293 5306 5320 5330 5337 5344 5351 5360 5366 5371 5375 5378 5382 5383 5382
5305 5296 5286 5276 5265 5256 5249 5244 5241 5242 5243 5240 5234 5228 5227 5227 5228 5229 5231 5232 5234 5235 5236 5240 5246 5254 5265 5277 5290 5303 5316 5327 5336 5343 5350 5357 5364 5368 5372 5375 5377 5377 5374
5292 5280 5270 5261 5253 5245 5240 5236 5232 5230 5229 5230 5229 5228 5225 5225 5226 5225 5225 5223 5226 5230 5234 5238 5244 5252 5264 5276 5288 5301 5313 5325 5335 5343 5350 5356 5361 5366 5369 5371 5372 5371 5367
5278 5267 5258 5249 5242 5236 5231 5227 5224 5221 5220 5220 5221 5220 5221 5222 5223 5222 5221 5221 5222 5226 5231 5236 5243 5253 5265 5276 5288 5301 5314 5325 5335 5342 5348 5354 5359 5363 5365 5366 5365 5362 5358
5265 5255 5247 5238 5230 5226 5222 5219 5216 5215 5213 5213 5213 5213 5215 5215 5215 5217 5219 5220 5221 5224 5229 5235 5244 5255 5267 5278 5290 5301 5313 5325 5334 5341 5347 5353 5357 5359 5359 5359 5356 5352 5348
5253 5244 5236 5229 5223 5219 5216 5213 5210 5208 5207 5207 5208 5208 5208 5206 5207 5210 5214 5216 5218 5222 5228 5235 5245 5257 5268 5279 5290 5302 5315 5326 5335 5340 5346 5351 5354 5354 5353 5351 5347 5343 5339
5243 5236 5229 5223 5218 5215 5212 5207 5204 5203 5202 5201 5201 5202 5202 5201 5204 5206 5209 5213 5217 5223 5230 5238 5249 5261 5273 5283 5293 5304 5317 5328 5335 5341 5346 5349 5350 5349 5347 5342 5339 5335 5333
5235 5229 5224 5219 5214 5209 5205 5202 5199 5198 5197 5196 5196 5196 5197 5198 5200 5203 5206 5211 5217 5224 5232 5242 5253 5266 5277 5287 5298 5310 5321 5330 5337 5343 5347 5348 5347 5344 5340 5336 5333 5330 5327
5228 5222 5217 5211 5206 5201 5198 5195 5193 5191 5189 5189 5190 5191 5192 5194 5197 5200 5204 5210 5217 5225 5235 5246 5259 5271 5282 5292 5304 5316 5327 5336 5341 5345 5347 5346 5343 5339 5335 5332 5329 5326 5322
5219 5212 5207 5201 5196 5192 5189 5186 5185 5184 5183 5184 5185 5186 5188 5191 5195 5199 5204 5211 5218 5228 5239 5252 5265 5276 5286 5298 5310 5323 5334 5340 5344 5346 5345 5345 5342 5338 5334 5331 5328 5323 5318